Location: Newark
(10.3333°N, 37.7167°E)
Time: 04:21:43
(UTC+00:00)

STARLINK-1096 - Pass Details

Date: 04 February 2020
Orbit: 344 x 355 km, 53.0° (Epoch: 19 February)

Event Time Altitude Azimuth Distance (km) Brightness Sun altitude
Rises 17:13:52 0° 314° (NW) 2,177 7.1 -24.5°
Reaches altitude 10° 17:15:59 10° 305° (NW) 1,330 6.1 -25.0°
Enters shadow 17:16:52 17° 296° (WNW) 1,000 5.5 -25.2°
